Location: Rock Island IL
(41.5000°N, 90.5500°W)
Time: 19:47:04
(UTC-06:00)

Envisat - Visible Passes

Search period start: 23 February 2018 00:00
Search period end: 05 March 2018 00:00
Orbit: 764 x 766 km, 98.2° (Epoch: 23 February)

Date Brightness Start Highest point End Pass type
(mag) Time Alt. Az. Time Alt. Az. Time Alt. Az.
23 Feb 4.2 18:22:22 10° ESE 18:26:09 22° ENE 18:29:57 10° NNE visible
23 Feb 3.9 19:59:57 10° S 20:04:50 47° W 20:09:44 10° NNW visible
24 Feb 2.9 19:23:00 10° SSE 19:28:04 79° ENE 19:33:10 10° N visible
24 Feb 5.9 21:05:49 10° WSW 21:07:40 12° W 21:09:30 10° WNW visible
25 Feb 3.5 18:46:55 10° SE 18:51:30 36° ENE 18:56:07 10° N visible
25 Feb 4.9 20:26:18 10° SSW 20:30:34 27° W 20:34:51 10° NW visible
26 Feb 4.4 18:11:52 10° ESE 18:15:08 18° ENE 18:18:26 10° NNE visible
26 Feb 3.5 19:48:40 10° S 19:53:40 60° W 19:58:42 10° NNW visible
27 Feb 3.0 19:11:58 10° SSE 19:16:57 62° ENE 19:21:59 10° N visible
27 Feb 5.7 20:53:27 10° SW 20:56:23 15° W 20:59:20 10° NW visible
28 Feb 3.8 18:36:08 10° SE 18:40:27 29° ENE 18:44:47 10° N visible
28 Feb 4.5 20:14:47 10° SSW 20:19:21 34° W 20:23:58 10° NNW visible
01 Mar 3.1 19:37:27 10° S 19:42:31 76° WSW 19:47:36 10° NNW visible
02 Mar 3.2 19:01:00 10° SE 19:05:51 49° ENE 19:10:46 10° N visible
02 Mar 5.4 20:41:31 10° SW 20:45:08 19° W 20:48:46 10° NW visible
03 Mar 4.1 18:25:27 10° ESE 18:29:25 23° ENE 18:33:23 10° NNE visible
03 Mar 4.1 20:03:21 10° S 20:08:09 43° W 20:13:00 10° NNW visible
04 Mar 2.9 19:26:18 10° SSE 19:31:22 86° E 19:36:29 10° NNW visible
04 Mar 6.0 21:10:00 10° W 21:11:02 11° W 21:12:04 10° WNW visible
